Flag for U.S.A. Weather past 2 weeks in Livonia, Michigan, U.S.A.

Now
37 °F

Overcast.


Feels Like: 29 °F
Forecast: 36 / 45 °F
Wind: 12 mph from Southwest

Location: Detroit Metropolitan Wayne County Airport

Current Time: Dec 25, 2014 at 7:24:07 PM

Latest Report: Dec 25, 2014 at 6:53 PM


Visibility: 10 mi

Pressure: 30.10 "Hg

Humidity: 76%

Dew point: 30 °F

Location of LivoniaLocation

Historic Weather in Livonia — Graph

°F

Livonia temperature yesterday

Maximum temperature yesterday: 50 °F (at 1:53 PM)
Minimum temperature yesterday: 37 °F (at 8:53 PM)
Average temperature yesterday: 44 °F

Past Weeks' High & Low Weather Summary

 TemperatureHumidityPressure
High52 °F (Dec 14, 2:53 PM)100% (Dec 16, 4:00 AM)30.36 "Hg (Dec 16, 4:00 AM)
Low21 °F (Dec 11, 3:53 AM)32% (Dec 11, 2:53 PM)29.21 "Hg (Dec 24, 6:53 PM)
Average36 °F81%30.04 "Hg
* Reported Dec 10 5:53 PM — Dec 25 5:53 PM, Livonia, Weather by CustomWeather, © 2014

Note: Actual official high and low records may vary slightly from our data, if they occured in-between our weather recording intervals... More about our weather records

Advertising

Livonia weather history for previous 24 hours

 ConditionsComfort  
Time TempWeatherWind HumidityBarometerVisibility
5:53 PM
Dec 25
37 °FOvercast.12 mph73%30.09 "Hg10 mi
4:53 PM38 °FOvercast.13 mph73%30.07 "Hg10 mi
3:53 PM38 °FOvercast.13 mph73%30.05 "Hg10 mi
2:53 PM38 °FOvercast.17 mph70%30.02 "Hg10 mi
1:53 PM39 °FOvercast.17 mph67%30.00 "Hg10 mi
12:53 PM39 °FOvercast.17 mph73%29.97 "Hg10 mi
11:53 AM40 °FMore clouds than sun.13 mph70%29.96 "Hg10 mi
10:53 AM40 °FMostly cloudy.15 mph77%29.94 "Hg10 mi
9:53 AM38 °FLight rain. Mostly cloudy.14 mph86%29.90 "Hg10 mi
8:53 AM38 °FLight rain. More clouds than sun.15 mph83%29.85 "Hg10 mi
7:53 AM38 °FOvercast.15 mph83%29.81 "Hg10 mi
6:53 AM38 °FLight rain. Mostly cloudy.14 mph90%29.77 "Hg9 mi
5:53 AM38 °FMostly cloudy.13 mph90%29.71 "Hg10 mi
4:53 AM38 °FMostly cloudy.20 mph90%29.67 "Hg10 mi
4:03 AM37 °FMostly cloudy.21 mph93%29.63 "Hg10 mi
3:53 AM38 °FMostly cloudy.15 mph90%29.64 "Hg10 mi
2:53 AM38 °FOvercast.17 mph90%29.61 "Hg10 mi
1:53 AM38 °FOvercast.16 mph86%29.56 "Hg10 mi
12:53 AM38 °FMostly cloudy.20 mph86%29.53 "Hg10 mi
11:53 PM
Dec 24
37 °FLight rain. Overcast.20 mph89%29.51 "Hg10 mi
10:53 PM37 °FPassing clouds.18 mph89%29.46 "Hg10 mi
9:53 PM37 °FLight rain. Mostly cloudy.17 mph89%29.43 "Hg10 mi
8:53 PM37 °FLight rain. Mostly cloudy.24 mph89%29.37 "Hg9 mi
7:53 PM40 °FLight rain. Overcast.18 mph93%29.32 "Hg9 mi
Weather by CustomWeather, © 2014

See weather overviewHow to use our weather pages